Bedford, Massachusetts, United States (01730)
Lat: 42.49N, Lon: 71.28W
Wx Zone: MAZ005
Local Info
Past Weather Observations for Saturday, October 18, 2014

NOTE: This archive is for the closest National Weather Service station to Bedford. Information may differ from the station used for current weather conditions.

Click here for Long-term Archive

Time Weather Temperature Dewpoint Humidity Pressure Winds Precip Visibility
23:56
Overcast
54°F / 12°C 46°F / 8°C 77% 29.59 in
(1002 mb)
SSW 6.9 mph
(SSW 11 kph)
- 10SM
22:56
Overcast
55°F / 13°C 46°F / 8°C 72% 29.59 in
(1002 mb)
W 6.9 mph
(W 11 kph)
- 10SM
21:56
Overcast
55°F / 13°C 48°F / 9°C 77% 29.59 in
(1002 mb)
SSW 8.1 mph
(SSW 13 kph)
0.00 in
(0.00 mm)
10SM
20:56
Overcast
57°F / 14°C 48°F / 9°C 72% 29.56 in
(1001 mb)
SSW 8.1 mph
(SSW 13 kph)
- 10SM
19:56
Mostly Cloudy
57°F / 14°C 48°F / 9°C 72% 29.56 in
(1001 mb)
W 10.4 mph
(W 17 kph)
- 10SM
18:56
Overcast
59°F / 15°C 52°F / 11°C 77% 29.56 in
(1001 mb)
W 8.1 mph
(W 13 kph)
- 10SM
17:56
Overcast
61°F / 16°C 50°F / 10°C 68% 29.53 in
(1000 mb)
SSW 4.6 mph
(SSW 7 kph)
0.00 in
(0.00 mm)
10SM
16:56
Mostly Cloudy
63°F / 17°C 54°F / 12°C 73% 29.53 in
(1000 mb)
W 9.2 mph
(W 15 kph)
- 10SM
15:56
Overcast
64°F / 18°C 54°F / 12°C 68% 29.5 in
(999 mb)
WNW 8.1 mph
(WNW 13 kph)
- 10SM
14:56
Mostly Cloudy
64°F / 18°C 61°F / 16°C 88% 29.47 in
(998 mb)
SW 5.8 mph
(SW 9 kph)
- 10SM
13:56
Partly Cloudy
64°F / 18°C 57°F / 14°C 78% 29.5 in
(999 mb)
SSE 10.4 mph
(SSE 17 kph)
0.03 in
(0.76 mm)
10SM
12:56
Partly Cloudy
68°F / 20°C 57°F / 14°C 69% 29.5 in
(999 mb)
SW 11.5 mph
(SW 19 kph)
- 10SM
11:56
Overcast
68°F / 20°C 55°F / 13°C 64% 29.5 in
(999 mb)
SSE 12.7 mph
(SSE 20 kph)
- 10SM
10:56
Overcast
70°F / 21°C 55°F / 13°C 60% 29.53 in
(1000 mb)
S 12.7 mph
(S 20 kph)
- 10SM
09:56
Mostly Cloudy
66°F / 19°C 57°F / 14°C 73% 29.56 in
(1001 mb)
SW 15 mph
(SW 24 kph)
- 10SM
09:53
Partly Cloudy
66°F / 19°C 57°F / 14°C 73% 29.56 in
(1001 mb)
SSE 12.7 mph
(SSE 20 kph)
- 10SM
09:32
Mostly Cloudy
66°F / 19°C 57°F / 14°C 73% 29.56 in
(1001 mb)
SW 13.8 mph
(SW 22 kph)
- 10SM
08:56
Partly Cloudy
64°F / 18°C 59°F / 15°C 83% 29.56 in
(1001 mb)
SSE 11.5 mph
(SSE 19 kph)
- 10SM
07:56
Partly Cloudy
61°F / 16°C 57°F / 14°C 88% 29.59 in
(1002 mb)
S 12.7 mph
(S 20 kph)
- 10SM
07:53
Partly Cloudy
61°F / 16°C 57°F / 14°C 88% 29.59 in
(1002 mb)
S 15 mph
(S 24 kph)
- 10SM
07:23
Overcast
59°F / 15°C 57°F / 14°C 94% 29.59 in
(1002 mb)
S 10.4 mph
(S 17 kph)
- 10SM
06:56
Mostly Cloudy
59°F / 15°C 57°F / 14°C 94% 29.59 in
(1002 mb)
SSE 8.1 mph
(SSE 13 kph)
- 10SM
06:46
Mostly Cloudy
57°F / 14°C 57°F / 14°C 100% 29.59 in
(1002 mb)
S 6.9 mph
(S 11 kph)
- 10SM
05:56
Overcast
55°F / 13°C 55°F / 13°C 100% 29.59 in
(1002 mb)
SW 3.5 mph
(SW 6 kph)
- 10SM
04:56
Overcast
55°F / 13°C 55°F / 13°C 100% 29.59 in
(1002 mb)
S 6.9 mph
(S 11 kph)
- 8SM
04:21
Mostly Cloudy
55°F / 13°C 55°F / 13°C 100% 29.59 in
(1002 mb)
S 9.2 mph
(S 15 kph)
- 8SM
04:09
Partly Cloudy
55°F / 13°C 55°F / 13°C 100% 29.59 in
(1002 mb)
S 8.1 mph
(S 13 kph)
- 9SM
03:56
Clear
55°F / 13°C 55°F / 13°C 100% 29.59 in
(1002 mb)
S 6.9 mph
(S 11 kph)
- 9SM
02:56
Clear
55°F / 13°C 54°F / 12°C 94% 29.59 in
(1002 mb)
S 4.6 mph
(S 7 kph)
- 10SM
01:56
Clear
55°F / 13°C 55°F / 13°C 100% 29.62 in
(1003 mb)
SW 5.8 mph
(SW 9 kph)
- 10SM
00:56
Clear
55°F / 13°C 55°F / 13°C 100% 29.62 in
(1003 mb)
Calm - 10SM
Time Weather Temperature Dewpoint Humidity Pressure Winds Precip Visibility


Weather for websites

WeatherForYou.com, LLC is not responsible for any damages or problems caused by this service. Current weather conditions are obtained from the closest station including government and personal stations which may have varying degrees of accuracy. Weather forecasts are derived from the NOAA NDFD. Like all things, this site belongs to Jesus Christ... He just trusts me to maintain it. If you have any questions or comments email webmaster@weatherforyou.com

Copyright © 2014, WeatherForYou.com LLC. All rights reserved.